GFSCGP_850_spd_075.txt.gz
Wind_Speed
23 16 17 20 19 20 18 20 17 16 11 11 14 18 17 15 13 11 13 17 20 21 22 25 25 23 21 19 16 15 13 12 14 15 13 14 14 6 5 8 11 10 8 7
19 19 19 18 16 14 15 15 18 17 18 18 13 19 14 12 14 13 12 18 18 20 22 25 25 24 23 22 20 17 15 13 10 14 20 18 22 12 7 8 11 5 6 7
20 20 18 17 14 14 18 18 17 17 17 19 12 18 17 20 16 7 9 9 17 19 23 25 26 26 26 25 24 22 17 8 15 13 13 15 17 14 10 8 8 7 6 6
20 20 19 11 14 15 19 16 17 17 14 13 17 15 17 8 9 9 8 10 11 15 17 23 27 27 28 26 25 26 22 11 14 9 11 13 9 9 8 8 8 8 7 8
19 19 18 20 18 18 17 14 15 13 14 17 20 12 12 11 7 11 10 6 3 4 17 21 29 27 26 28 30 29 18 12 12 10 14 14 12 11 11 9 9 12 11 10
22 23 18 16 17 20 18 15 15 14 15 14 18 17 16 13 1 7 6 7 7 3 10 17 25 27 26 28 26 27 17 11 4 10 9 18 17 13 14 10 10 12 10 10
25 21 15 12 17 16 18 15 11 13 13 13 17 18 16 6 6 2 7 8 4 1 9 17 23 26 28 27 25 27 13 11 14 6 9 10 8 11 13 11 8 9 9 8
22 21 23 17 18 14 17 17 13 15 12 12 17 9 10 10 6 5 7 1 0 6 10 17 21 23 23 23 24 24 12 12 8 7 6 4 6 4 5 6 6 10 8 13
21 22 22 27 20 19 18 17 20 19 17 12 12 11 9 5 10 9 7 6 4 9 11 17 19 18 20 21 23 18 11 9 3 6 5 6 5 5 4 5 3 6 11 10
24 22 16 18 16 20 22 15 11 11 16 16 13 12 8 8 5 13 11 10 8 11 14 15 16 15 16 16 19 15 8 11 3 3 3 3 5 4 3 2 4 7 7 9
22 20 17 16 12 19 15 16 14 17 15 12 13 8 12 9 12 10 9 10 11 13 14 15 14 13 13 14 16 14 12 2 14 8 7 9 7 6 6 5 6 7 5 7
18 16 12 18 17 17 20 20 20 13 15 13 12 13 10 10 10 7 11 12 13 13 16 14 14 13 13 13 14 16 19 18 15 10 11 10 10 9 9 7 6 7 6 7
17 18 14 18 16 15 11 16 16 20 17 19 13 6 9 10 12 8 11 12 13 14 15 15 14 15 13 12 13 15 20 17 16 14 12 11 11 12 11 8 6 5 5 7
8 12 16 16 19 16 22 19 18 16 11 14 17 10 13 10 8 9 8 12 14 15 15 14 13 13 13 12 14 17 20 18 17 15 14 13 14 13 11 10 9 9 8 8
6 12 17 17 21 17 19 21 23 23 18 17 7 19 16 8 10 11 6 8 11 13 14 13 12 14 15 14 15 17 18 19 17 17 17 16 16 14 12 12 11 10 10 9
3 8 14 13 18 16 19 13 19 22 19 18 12 11 13 4 14 14 11 5 6 9 12 10 10 13 17 16 18 18 17 17 16 16 14 15 17 15 15 14 14 13 11 13
5 8 7 16 18 14 18 18 14 10 15 9 4 13 12 12 13 13 12 11 6 2 7 10 10 12 17 18 18 22 19 17 18 20 19 15 17 16 14 14 15 13 13 13
6 7 10 11 6 16 6 9 4 3 11 5 12 11 8 12 18 15 13 11 9 7 3 3 6 10 13 16 18 17 17 19 20 22 18 17 19 17 15 16 16 15 15 15
7 7 10 12 13 7 8 5 7 9 10 7 6 7 9 9 18 16 14 13 9 8 7 7 7 10 14 18 19 21 20 20 20 20 19 18 19 18 18 18 17 17 16 15
9 5 8 11 13 14 11 10 6 1 11 7 6 8 10 5 8 9 13 12 12 11 13 13 8 10 14 21 22 21 20 18 21 20 21 20 20 21 20 21 20 17 16 14
12 8 13 12 11 6 7 11 3 8 6 8 10 11 13 10 11 9 11 13 12 12 13 13 8 5 8 12 20 21 17 18 16 18 19 21 22 25 23 22 20 18 16 14
5 5 10 12 15 15 13 1 3 6 8 9 10 11 10 10 10 11 12 13 12 13 13 12 11 12 16 12 9 9 12 12 12 16 19 19 22 22 23 24 22 20 18 17
8 7 3 7 5 6 13 14 11 9 10 10 10 10 10 11 12 12 13 14 14 13 13 12 12 12 11 14 6 17 12 5 9 11 14 17 19 21 21 24 23 20 20 20
10 7 3 5 9 10 10 12 13 11 10 9 9 9 10 11 10 13 14 14 14 14 14 14 14 12 10 9 5 5 8 8 8 13 13 16 18 21 23 24 25 24 24 21
5 18 7 11 11 13 12 11 9 8 8 8 8 9 10 10 11 12 13 13 13 13 14 13 13 13 11 9 9 8 10 11 13 13 15 17 20 21 24 25 25 24 24 19
14 5 2 10 8 14 13 10 8 9 10 10 9 10 10 8 7 9 9 10 11 12 12 13 13 14 12 10 10 14 12 12 13 14 18 20 22 24 23 27 28 25 23 20

GFSCGP_850_spd_078.txt.gz
Wind_Speed
22 15 16 21 20 21 18 20 21 18 16 15 11 12 12 17 16 16 22 27 27 27 27 26 26 25 26 28 24 26 24 23 23 20 17 14 13 12 7 5 12 16 13 7
19 20 21 21 21 20 18 19 17 19 15 16 16 19 11 18 16 11 16 23 31 26 27 32 30 29 28 30 29 25 24 22 21 19 14 16 15 11 8 7 14 12 8 8
22 21 22 23 17 18 18 15 17 16 17 16 16 19 11 17 20 22 15 10 25 27 27 34 37 34 31 31 30 29 22 20 19 14 12 16 13 10 12 11 10 7 6 6
22 24 23 21 21 16 20 15 19 18 15 12 14 14 15 17 14 15 9 9 9 26 23 33 39 38 35 31 31 28 20 22 15 13 9 8 5 8 7 8 7 8 8 7
24 22 20 20 19 18 17 15 18 16 15 16 16 10 14 5 16 9 10 15 3 4 22 30 39 39 33 29 31 26 23 23 12 7 7 9 6 7 8 7 8 11 11 9
26 29 21 19 17 20 13 16 18 13 15 13 16 15 14 15 7 10 11 8 9 8 6 22 38 37 31 32 33 25 27 22 12 9 8 16 16 11 10 10 8 12 12 12
26 27 23 22 14 14 16 17 12 13 12 13 19 17 12 9 14 13 12 12 7 4 4 12 33 34 31 33 27 27 31 21 10 10 5 5 9 14 13 11 12 12 11 12
21 22 25 24 18 14 19 18 13 14 14 15 15 13 12 19 13 22 9 6 6 4 4 11 30 28 29 25 25 24 28 16 9 3 3 4 5 7 3 4 7 8 6 11
20 26 22 26 22 18 19 16 16 18 19 14 13 6 7 9 6 7 9 17 12 13 7 14 26 25 23 18 16 21 19 5 4 0 5 6 6 6 5 6 5 4 11 10
23 23 26 23 24 24 21 15 14 12 16 16 15 13 6 15 10 17 15 17 14 12 12 19 16 17 17 17 16 21 11 8 8 6 6 6 7 7 8 5 5 4 8 9
25 19 22 22 19 20 15 17 17 18 12 12 13 3 9 11 10 13 14 17 17 16 15 15 15 16 17 17 19 22 15 10 14 17 12 9 7 8 7 6 9 8 6 8
26 18 15 25 15 24 17 17 20 12 13 13 13 7 10 3 5 18 17 18 19 18 16 17 18 16 17 17 20 21 18 18 18 14 12 11 13 10 11 10 8 8 8 9
10 13 12 18 18 13 17 21 17 17 13 18 13 3 8 7 7 12 18 17 19 20 18 14 15 15 17 17 18 20 19 22 18 12 13 13 12 14 12 8 7 9 9 9
9 9 9 13 17 13 13 21 20 16 9 14 16 13 6 4 9 1 16 17 18 18 18 15 13 13 13 12 15 20 20 21 22 15 14 14 14 14 14 11 9 8 8 11
5 9 13 16 21 20 17 14 20 18 19 16 7 9 17 15 16 10 10 14 15 16 15 14 12 12 11 12 13 15 17 20 19 17 16 15 15 14 13 14 12 11 9 10
18 10 11 17 16 18 16 17 18 20 22 20 16 14 21 19 16 12 1 10 14 14 14 13 11 12 14 15 15 15 17 20 20 19 18 17 19 18 17 15 15 13 14 14
9 11 8 15 18 18 14 18 22 11 8 11 16 15 13 14 10 18 5 6 9 8 9 12 12 11 15 17 17 19 20 21 23 21 21 23 22 21 20 16 17 15 16 15
5 10 10 10 11 15 10 23 19 4 19 11 26 23 17 4 15 14 8 8 10 9 6 6 5 6 10 15 18 19 21 20 21 22 24 26 25 25 22 20 18 16 16 16
13 10 9 9 11 7 12 11 15 31 17 17 10 31 37 31 25 13 10 12 10 7 7 8 10 7 6 10 16 22 22 24 24 26 30 28 24 25 24 23 22 19 17 17
13 7 8 10 12 6 5 6 23 27 8 15 18 15 10 24 12 8 9 9 7 10 10 12 9 7 10 13 13 19 23 26 31 29 30 27 26 24 26 24 23 21 18 17
10 11 14 12 10 5 6 8 17 11 5 15 16 18 18 13 13 10 8 8 8 10 11 10 14 11 13 13 12 22 23 23 28 32 34 28 26 23 25 24 23 21 20 17
2 3 10 13 13 10 10 12 5 7 9 17 13 17 16 15 11 10 12 13 12 12 12 12 10 13 15 16 17 16 22 31 50 62 35 32 28 24 24 26 23 22 22 21
6 5 5 7 6 13 19 18 15 17 17 10 12 11 13 12 10 12 13 13 13 15 15 13 12 11 11 16 15 13 13 15 25 32 35 31 22 20 21 26 26 25 25 24
11 12 3 3 9 13 17 18 17 16 12 10 11 12 11 11 11 11 12 13 14 15 16 16 13 10 12 12 11 11 10 11 12 10 9 12 13 15 20 25 25 27 27 27
3 8 7 2 8 20 14 17 17 16 14 12 12 13 12 9 10 10 11 13 13 13 16 14 13 11 15 14 12 12 11 14 14 8 8 11 11 17 23 21 21 22 27 28
4 4 3 1 27 21 14 15 16 15 13 12 12 12 10 9 8 10 9 11 12 14 13 14 11 10 11 15 16 15 15 13 13 12 9 13 16 20 19 21 22 27 29 22

GFSCGP_850_spd_081.txt.gz
Wind_Speed
24 5 7 13 13 16 17 18 17 14 14 4 5 5 6 16 19 21 30 37 38 44 39 35 35 33 31 31 29 27 24 21 19 19 18 16 14 10 10 10 11 13 11 12
7 13 14 15 17 18 19 18 18 13 10 6 8 10 8 9 8 15 22 37 41 37 38 37 37 35 36 36 33 27 25 23 23 22 18 15 16 14 13 11 15 13 14 11
14 16 17 19 18 20 14 8 8 7 11 9 7 8 7 10 12 18 22 41 43 43 45 42 42 41 39 38 37 29 25 23 23 23 18 20 18 16 16 14 16 15 10 8
13 18 20 19 16 17 10 11 14 7 8 5 4 7 8 8 11 9 19 19 35 38 44 42 44 43 42 39 36 29 22 21 19 20 17 14 14 13 10 14 14 13 8 5
17 21 19 20 21 15 9 7 6 6 7 4 8 2 8 8 6 6 6 23 34 35 45 35 44 47 42 38 36 31 25 21 20 18 13 11 7 8 10 9 13 18 13 8
21 29 18 16 16 12 8 8 6 3 2 5 9 5 9 7 7 4 18 22 20 17 31 37 43 46 39 36 35 33 29 22 24 20 11 12 14 14 13 11 12 15 15 12
19 18 21 18 14 11 7 4 2 4 4 7 10 5 16 10 9 9 9 18 17 16 15 36 36 41 38 36 36 33 29 24 22 13 9 9 19 19 16 13 14 16 16 15
15 14 16 22 15 9 7 9 6 7 5 14 4 8 17 16 15 21 27 24 20 15 23 38 40 43 42 38 35 33 30 25 19 7 10 7 5 8 11 12 14 13 13 11
16 18 13 21 20 14 7 7 7 5 8 4 6 10 7 13 9 3 12 21 25 25 25 41 43 43 40 37 35 30 26 21 9 8 4 3 8 8 7 9 8 8 11 8
15 15 10 15 13 16 11 8 3 2 5 6 7 4 4 4 10 15 13 18 28 31 37 36 37 35 31 28 24 21 16 17 9 9 9 7 8 10 8 8 10 8 9 11
12 11 9 14 17 14 6 6 5 4 5 6 4 4 3 7 13 10 10 23 29 35 36 33 28 23 18 16 15 16 15 17 13 12 13 15 10 11 11 11 10 9 7 10
9 8 6 14 16 13 9 13 11 6 9 4 5 6 8 7 10 14 16 20 25 28 30 26 24 22 21 16 12 16 15 15 18 18 13 10 10 13 13 9 9 8 8 12
6 5 6 11 10 9 5 11 9 7 4 9 5 4 10 9 12 21 18 17 20 20 21 27 24 21 19 16 13 15 17 17 25 21 12 11 13 13 14 9 9 9 11 15
9 4 2 6 9 6 6 10 8 7 6 8 6 4 5 7 8 22 27 11 15 18 21 22 19 18 19 15 16 18 19 19 22 18 12 12 14 15 13 11 9 9 11 13
5 5 10 9 7 7 13 2 12 7 6 6 8 9 7 8 6 14 18 9 15 17 16 17 15 15 17 15 18 19 21 19 21 21 16 16 14 15 15 14 10 10 12 14
5 6 10 7 8 10 7 13 20 17 11 8 8 4 6 10 14 20 22 22 16 14 13 13 10 12 10 14 16 16 19 18 24 20 19 18 18 20 19 18 16 14 13 13
4 3 5 6 19 15 3 3 4 5 28 2 4 5 7 6 8 10 21 28 25 16 10 9 12 14 14 15 16 14 14 15 18 17 19 20 20 23 22 20 18 19 18 17
5 4 3 4 9 5 3 3 14 14 28 15 20 16 10 8 20 28 24 23 21 15 11 11 12 11 7 13 13 14 14 14 16 19 19 21 22 23 23 22 20 20 20 21
4 5 4 4 5 10 6 6 3 6 13 20 21 17 12 19 22 22 25 24 20 16 14 8 4 3 4 3 2 18 15 13 15 17 17 21 20 22 22 24 23 23 22 24
6 4 5 7 5 7 2 8 10 7 7 12 9 28 19 12 6 8 21 19 11 10 12 10 10 7 2 4 5 1 14 17 18 17 17 17 17 28 25 36 31 28 26 25
5 5 0 3 5 6 10 9 14 1 7 22 22 7 17 1 5 10 15 13 9 13 9 6 6 9 10 10 11 6 7 12 15 17 14 17 26 33 64 63 47 39 32 28
5 5 4 5 5 6 28 9 5 7 22 26 32 27 17 19 11 8 5 7 8 8 7 10 8 8 12 11 10 9 9 8 13 16 17 22 37 68 57 53 53 43 35 32
3 2 1 2 4 14 31 13 18 20 28 25 28 20 21 19 19 13 10 10 12 11 9 8 9 7 10 13 10 8 9 10 12 14 15 16 33 38 4 37 40 38 33 33
2 1 2 2 5 3 9 12 12 12 21 22 21 20 20 17 15 13 12 10 10 10 8 5 4 7 9 9 7 7 10 11 11 12 11 12 5 4 3 16 26 32 33 33
4 3 3 4 7 1 9 19 17 14 18 19 17 16 13 14 17 16 12 9 9 9 9 7 7 8 10 12 12 11 11 13 16 11 9 9 12 18 20 23 26 28 29 30
3 2 2 1 11 6 5 5 9 7 12 11 13 16 16 12 11 9 10 8 8 11 10 12 14 13 13 14 15 15 16 13 11 11 10 14 15 16 16 18 19 19 27 28

GFSCGP_850_spd_084.txt.gz
Wind_Speed
16 1 7 12 10 9 8 9 13 18 22 4 13 9 7 16 23 25 32 36 39 47 41 41 42 42 37 38 33 28 25 24 23 21 21 19 15 15 8 13 14 18 16 14
1 10 16 13 9 11 12 13 18 19 18 7 8 8 9 8 11 26 33 35 41 42 37 42 45 44 42 41 36 30 27 24 25 22 18 17 14 14 15 12 17 19 16 14
13 20 11 10 13 13 13 8 15 14 19 3 1 8 7 8 5 14 21 42 46 45 46 42 46 48 45 43 41 34 28 25 24 20 18 19 19 20 18 17 19 16 13 13
14 17 11 12 14 11 10 17 16 16 6 6 4 5 7 8 10 7 23 26 35 42 44 46 45 51 49 46 41 35 29 27 25 20 17 20 20 19 18 18 17 13 13 11
16 14 9 10 18 12 12 16 17 17 5 3 7 3 8 4 8 6 8 23 38 45 48 47 47 51 51 46 43 38 31 29 25 22 18 16 19 15 11 11 14 15 17 15
12 20 14 19 20 12 13 6 1 4 4 3 5 4 12 5 6 5 5 20 34 39 46 46 46 44 47 45 42 39 34 31 25 24 21 19 16 14 15 14 18 17 18 19
5 6 11 14 8 11 3 5 5 3 3 7 4 1 14 11 7 8 10 22 35 45 50 37 39 42 45 45 43 41 35 32 27 24 24 17 15 16 19 17 16 17 17 19
6 11 8 13 10 11 8 8 6 7 4 7 6 6 15 11 24 30 25 30 31 36 39 40 39 39 46 44 42 39 37 34 28 22 17 13 7 7 23 19 20 16 15 17
5 13 6 11 16 8 10 4 9 6 2 3 3 9 10 8 1 12 14 20 28 31 35 38 37 40 44 43 40 38 36 31 22 14 12 7 6 10 16 12 16 11 11 14
1 4 11 19 11 17 8 4 1 2 3 7 5 5 6 7 4 8 8 18 24 28 31 36 39 41 42 41 35 34 29 27 15 12 11 12 5 14 13 10 11 9 6 8
6 6 13 8 9 12 2 3 2 3 5 6 2 6 4 9 3 8 6 18 29 32 33 36 37 39 36 32 30 28 25 20 14 13 13 12 6 9 9 8 8 8 6 7
4 2 5 18 16 8 11 11 7 6 7 3 5 5 4 6 4 13 15 15 15 18 26 31 34 30 28 27 24 20 16 15 16 13 12 11 5 8 8 7 7 6 5 8
5 2 5 8 9 4 5 6 6 5 3 8 6 6 3 4 9 17 24 24 18 12 12 18 25 24 23 18 14 14 16 15 15 16 15 12 11 11 10 9 6 6 6 10
17 1 5 4 10 8 5 3 7 7 2 5 7 5 3 2 11 9 22 28 24 14 13 17 20 19 17 14 10 10 15 16 15 20 17 11 12 12 12 10 7 7 8 11
4 4 1 7 5 8 5 4 7 11 3 3 8 11 4 8 11 14 26 24 23 21 15 16 17 19 17 13 11 10 9 13 15 21 19 13 9 11 12 10 9 7 10 12
2 7 4 6 12 13 8 15 12 10 6 3 2 2 6 6 5 22 30 30 27 27 27 23 20 21 20 17 14 13 14 15 17 14 17 15 11 12 13 13 13 12 10 12
4 2 1 5 6 6 9 8 9 7 7 3 2 4 8 10 3 4 3 11 11 10 18 21 20 20 16 13 11 13 13 15 15 12 12 14 16 14 15 14 15 14 13 14
8 5 1 3 4 5 4 7 15 13 4 8 7 15 18 18 16 25 15 14 14 12 10 8 9 11 16 16 13 9 5 5 4 7 12 14 14 16 17 18 17 18 17 17
6 5 3 2 2 6 5 6 5 6 2 5 6 13 20 28 38 24 32 17 11 17 18 11 11 10 8 8 13 15 13 11 10 10 13 17 20 22 25 21 13 22 19 21
4 5 4 2 5 4 7 10 9 3 5 8 3 1 19 29 11 16 26 25 26 22 22 17 18 12 8 8 7 11 15 16 17 15 16 18 20 21 22 30 36 28 32 23
5 4 3 4 2 3 7 14 6 4 7 10 8 12 16 8 21 22 16 19 14 19 16 12 10 9 11 10 7 7 9 13 16 17 19 19 16 13 16 24 32 39 48 42
2 4 3 2 3 2 19 8 4 9 6 11 9 6 14 25 27 11 10 7 10 10 11 12 7 9 9 8 6 5 3 0 7 13 18 21 21 17 20 22 34 40 58 64
3 3 2 3 4 6 10 6 13 20 28 19 12 12 23 25 16 10 10 7 12 13 11 5 3 3 5 7 7 6 6 8 11 13 14 18 16 12 16 20 26 21 19 44
2 2 2 2 2 2 7 15 10 12 25 23 13 15 23 19 11 12 11 8 11 10 7 6 5 4 4 5 6 7 8 11 14 16 18 20 16 17 18 19 18 15 4 28
3 1 2 2 4 13 9 22 23 22 25 10 19 17 17 15 14 12 11 8 4 5 4 4 7 8 8 6 7 9 9 10 12 12 16 18 18 16 20 19 16 15 11 18
4 5 3 3 9 6 15 10 10 18 20 15 18 19 14 9 9 6 5 5 6 8 7 7 7 8 9 8 9 9 12 14 16 15 15 14 10 12 15 22 16 17 14 23